STARLINK-37175, 68401

Orbit data source: Space-Track

STARLINK-37175, 68401 is a payload satellite owned by SpaceX/Seattle (US) in SSO that was launched on Thu, 26 Mar 2026 UTC via an FALCON 9 launch vehicle from the Air Force Western Test Range (AFWTR). Payload-class satellites include a variety of spacecraft equipped with specific instruments for various scientific and technological missions. These include communications satellites like Starlink; space stations such as the ISS; scientific satellites like the Hubble; Earth observation satellites from companies like Planet Labs, Umbra, and HawkEye 360; GPS; miniature CubeSats for education and research; and military/defense satellites.

Not visible in the next 10 days
Identifier
68401, 2026-063X
Orbit
SSO
Country
Flag of USUS
Related business
Manufacturer
SpaceX/Seattle
Mission
Operational spacecraft
Bus & Motor
STARLINK V2MO, Unknown motor
Mass
575 kg wet, ~530 kg dry
Launch date (UTC)
2026-03-26 (1 week ago)
Launch vehicle
FALCON 9
Launch site
Air Force Western Test Range (AFWTR)
Object type
Payload
Rocket body
Debris
Shape & HBR
Unknown shape, 17.7 m
Radar Cross Section
RCS unknown

Expand to show TLE details & history
Last TLE update: 5 hours ago

TLE from 5 hours ago
0 STARLINK-37175
1 68401U 26063X   26095.58336806 -.02281369  13656-2 -78898-2 0  9995
2 68401  97.2798 236.6208 0001554  74.7885 178.5509 15.89660949  2783
Epoch: 2026-04-05T14:00Z
TLE epoch observation values (Epoch: 2026-04-05T14:00:03.000Z)
Latitude
-72.00264°
Longitude
-10.2955°
Altitude
330.929 km
Speed
7.708 km/s
True Right ascension
02h 14m 24s
True Declination
-71° 53' 41"
Sunlit
Object was in daylight at epoch
Visualization orbit readout
Latitude
Unknown
Longitude
Unknown
Altitude
Unknown
Speed
Unknown
Apparent Right ascension
Unknown
Apparent Declination
Unknown
Sunlit
N/A
Visualization observer readout
Local Sidereal Time
00:59:52
Azimuth
Unknown
Elevation
Unknown
Doppler factor
Unknown
Orbital elements
Apogee altitude
301.139 km
Perigee altitude
299.063 km
Semi-major axis
6,678.238 km
Eccentricity
0.00016
Inclination
97.2798°
RAAN
236.6208°
Arg. of periapsis
74.7885°
True anomaly
178.55135°
Mean anomaly
178.5509°
Eccentric anomaly
178.55113°
Mean motion
3.97695 °/min
Orbital period
90.52 mins
BSTAR
-0.0078898
Loading maneuver chart data...
Computing Atmospheric mass density...
Loading historical data...
Loading historical data...
Loading historical data...
Loading historical data...
Loading historical data...
Loading historical data...
Loading historical data...

Documentation

Showing up to 5 results
|